Location: Newark
(40.9833°N, 0.0333°W)
Time: 01:04:33
(UTC+00:00)

deb Explorer IX - All Passes

Search period start: 27 October 2020 00:00
Search period end: 06 November 2020 00:00
Orbit: 537 x 1106 km, 38.8° (Epoch: 26 October)

Date Brightness Start Highest point End Pass type
(mag) Time Alt. Az. Time Alt. Az. Time Alt. Az.
27 Oct - 03:52:29 10° SSE 03:55:26 14° SE 03:58:35 10° ESE visible
27 Oct - 05:35:43 10° SW 05:41:28 43° SSE 05:48:00 10° E visible
27 Oct - 07:21:52 10° WSW 07:28:27 73° S 07:35:44 10° E daylight
27 Oct - 09:08:50 10° W 09:15:49 68° SSW 09:23:07 10° ESE daylight
27 Oct - 10:56:16 10° W 11:02:51 38° SSW 11:09:23 10° SE daylight
27 Oct - 12:46:22 10° WSW 12:49:05 12° SW 12:51:45 10° SSW daylight
28 Oct - 03:29:29 10° SSE 03:32:12 14° SE 03:35:05 10° ESE visible
28 Oct - 05:12:36 10° SW 05:18:12 43° SSE 05:24:35 10° E visible
28 Oct - 06:58:42 10° WSW 07:05:08 73° S 07:12:20 10° E daylight
28 Oct - 08:45:36 10° W 08:52:28 68° SSW 08:59:45 10° ESE daylight
28 Oct - 10:32:58 10° W 10:39:30 37° SSW 10:46:05 10° SE daylight
28 Oct - 12:23:01 10° WSW 12:25:45 12° SW 12:28:28 10° SSW daylight
29 Oct - 03:06:31 10° SSE 03:08:59 13° SE 03:11:35 10° ESE visible
29 Oct - 04:49:30 10° SW 04:54:55 42° SSE 05:01:10 10° E visible
29 Oct - 06:35:33 10° WSW 06:41:49 72° S 06:48:55 10° E daylight
29 Oct - 08:22:24 10° W 08:29:07 68° SSW 08:36:23 10° ESE daylight
29 Oct - 10:09:42 10° W 10:16:08 37° SSW 10:22:44 10° SE daylight
29 Oct - 11:59:43 10° WSW 12:02:26 12° SW 12:05:10 10° SSW daylight
30 Oct - 02:43:35 10° SSE 02:45:46 12° SE 02:48:03 10° ESE visible
30 Oct - 04:26:25 10° SW 04:31:40 41° SSE 04:37:44 10° E visible
30 Oct - 06:12:25 10° WSW 06:18:31 72° S 06:25:30 10° E daylight
30 Oct - 07:59:11 10° W 08:05:46 67° SSW 08:12:59 10° ESE daylight
30 Oct - 09:46:27 10° W 09:52:47 37° SSW 09:59:22 10° SE daylight
30 Oct - 11:36:26 10° WSW 11:39:07 12° SW 11:41:47 10° SSW daylight
31 Oct - 02:20:41 10° SSE 02:22:33 12° SE 02:24:31 10° ESE visible
31 Oct - 04:03:22 10° SW 04:08:26 40° SSE 04:14:20 10° E visible
31 Oct - 05:49:18 10° WSW 05:55:13 72° S 06:02:05 10° E visible
31 Oct - 07:36:02 10° W 07:42:26 67° SSW 07:49:35 10° ESE daylight
31 Oct - 09:23:13 10° W 09:29:27 36° SSW 09:36:00 10° SE daylight
31 Oct - 11:13:12 10° WSW 11:15:47 12° SW 11:18:23 10° SSW daylight
01 Nov - 01:57:50 10° SSE 01:59:22 11° SE 02:00:57 10° ESE visible
01 Nov - 03:40:18 10° SW 03:45:12 40° SSE 03:50:55 10° E visible
01 Nov - 05:26:13 10° WSW 05:31:57 71° S 05:38:40 10° E visible
01 Nov - 07:12:52 10° W 07:19:07 66° SSW 07:26:11 10° ESE daylight
01 Nov - 09:00:01 10° W 09:06:06 36° SSW 09:12:36 10° SE daylight
01 Nov - 10:50:01 10° WSW 10:52:27 12° SW 10:54:55 10° SSW daylight
02 Nov - 01:35:04 10° SSE 01:36:11 11° SE 01:37:19 10° SE night (unlit)
02 Nov - 03:17:16 10° SW 03:21:59 39° SSE 03:27:31 10° E visible
02 Nov - 05:03:08 10° WSW 05:08:42 71° S 05:15:14 10° E visible
02 Nov - 06:49:44 10° W 06:55:49 65° SSW 07:02:46 10° ESE daylight
02 Nov - 08:36:50 10° W 08:42:46 35° SSW 08:49:11 10° SE daylight
02 Nov - 10:26:54 10° WSW 10:29:08 12° SW 10:31:25 10° SSW daylight
03 Nov - 01:12:32 10° SE 01:13:00 10° SE 01:13:29 10° SE night (unlit)
03 Nov - 02:54:14 10° SW 02:58:47 38° SSE 03:04:07 10° E visible
03 Nov - 04:40:04 10° WSW 04:45:27 71° S 04:51:50 10° E visible
03 Nov - 06:26:37 10° W 06:32:31 65° S 06:39:20 10° ESE daylight
03 Nov - 08:13:40 10° W 08:19:26 34° SSW 08:25:45 10° SE daylight
03 Nov - 10:03:50 10° WSW 10:05:49 11° SW 10:07:50 10° SSW daylight
04 Nov - 02:31:12 10° SW 02:35:36 37° SSE 02:40:44 10° E visible
04 Nov - 04:17:01 10° WSW 04:22:13 70° S 04:28:25 10° E visible
04 Nov - 06:03:32 10° W 06:09:14 64° SSW 06:15:54 10° ESE visible
04 Nov - 07:50:31 10° W 07:56:07 34° SSW 08:02:19 10° SE daylight
04 Nov - 09:40:52 10° SW 09:42:30 11° SW 09:44:10 10° SSW daylight
05 Nov - 02:08:10 10° SW 02:12:26 36° SSE 02:17:22 10° E visible
05 Nov - 03:53:58 10° WSW 03:59:00 69° S 04:05:01 10° E visible
05 Nov - 05:40:26 10° W 05:45:58 63° SSW 05:52:29 10° ESE visible
05 Nov - 07:27:23 10° W 07:32:49 33° SSW 07:38:52 10° SSE daylight
05 Nov - 09:18:05 10° SW 09:19:12 10° SW 09:20:20 10° SSW daylight
